Location: Namasale
(1.5000°N, 32.6167°E)
Time: 16:56:04
(UTC+00:00)

Delta 2 Rocket - Pass Details

Date: 09 April 2020
Orbit: 416 x 808 km, 35.6° (Epoch: 26 May)

Event Time Altitude Azimuth Distance (km) Brightness Sun altitude
Rises 16:34:00 0° 306° (NW) 2,625 8.0 -10.4°
Reaches altitude 10° 16:36:06 10° 305° (NW) 1,799 7.0 -11.0°
Maximum altitude 16:40:15 80° 219° (SW) 605 3.5 -12.0°
Enters shadow 16:44:19 14° 131° (SE) 1,786 5.4 -13.0°
